User: anonymous   Login
Location: Vancouver
(49.2500°N, 123.1330°W)
Time: 10:57:03
(UTC-07:00)
Language:

YAOGAN 6 - Orbit

View from above orbital plane
View from above orbital plane
View from above satellite
View from above satellite

Ground track
Ground track

The orbit data is extracted from the following two-line orbital elements,

1 34839U 09021A   15210.08523014  .00001425  00000-0  62145-4 0  9995
2 34839 097.2406 276.7444 0028875 238.2265 207.6166 15.23413023347588
Epoch (UTC): 29 July 2015 02:02:43
Eccentricity: 0.0028875
inclination: 97.2406°
perigee height: 476 km
apogee height: 515 km
right ascension of ascending node: 276.7444°
argument of perigee: 238.2265°
revolutions per day: 15.23413023
mean anomaly at epoch: 207.6166°
orbit number at epoch: 34758

The dashed part of the orbit path shows where the satellite is in the earth's shadow,  

DLR